Flight Track Log - Related Links

Times and Time Zones

All times are in EDT time to prevent confusion due to time zone crossing. See the DAL6231 flight status page for this flight to view local times or setup timezone preferences in your user account.

Time Position Orientation Groundspeed Altitude Reporting Facility
EDT Latitude Longitude Course Direction KTS MPH feet Rate Location/Type
Sun 09:09:53 PM 40.8000 -73.8667 37° Northeast 151 174 900  Level New York TRACON
Sun 09:10:53 PM 40.8333 -73.8333 37° Northeast 207 238 3,000 2,250 Climbing New York TRACON
Sun 09:11:53 PM 40.9000 -73.8667 339° North 259 298 5,400 3,048 Climbing New York TRACON
Sun 09:12:59 PM 40.9833 -73.8500 North 263 303 9,400 2,356 Climbing New York TRACON
Sun 09:15:04 PM 41.0811 -73.6378 59° Northeast 348 400 12,900 1,246 Climbing Boston Center
Sun 09:16:02 PM 41.1406 -73.5369 52° Northeast 369 425 13,200 1,513 Climbing Boston Center
Sun 09:17:03 PM 41.2167 -73.4142 50° Northeast 376 433 15,900 1,934 Climbing Boston Center
Sun 09:18:03 PM 41.2800 -73.3075 52° Northeast 389 448 17,100 1,462 Climbing Boston Center
Sun 09:19:02 PM 41.3497 -73.1617 57° Northeast 414 476 18,800 1,700 Climbing Boston Center
Sun 09:20:03 PM 41.4067 -73.0406 58° Northeast 424 488 20,500 1,678 Climbing Boston Center
Sun 09:21:00 PM 41.4742 -72.9028 57° Northeast 430 495 22,100 1,563 Climbing Boston Center
Sun 09:22:02 PM 41.5414 -72.7617 57° Northeast 435 501 23,600 1,415 Climbing Boston Center
Sun 09:23:03 PM 41.6042 -72.6206 59° Northeast 435 501 25,000 1,450 Climbing Boston Center
Sun 09:24:02 PM 41.6750 -72.4761 57° Northeast 448 516 26,500 1,550 Climbing Boston Center
Sun 09:25:03 PM 41.7586 -72.3511 48° Northeast 453 521 28,100 1,388 Climbing Boston Center
Sun 09:26:03 PM 41.8417 -72.2256 48° Northeast 448 516 29,300 966 Climbing Boston Center
Sun 09:27:01 PM 41.9247 -72.0997 48° Northeast 448 516 30,000 650 Climbing Boston Center
Sun 09:28:03 PM 42.0139 -71.9594 49° Northeast 458 527 30,600 595 Climbing Boston Center
Sun 09:29:02 PM 42.1028 -71.8244 48° Northeast 471 542 31,200 555 Climbing Boston Center
Sun 09:30:02 PM 42.1958 -71.6864 48° Northeast 483 556 31,700 550 Climbing Boston Center
Sun 09:31:02 PM 42.2925 -71.5419 48° Northeast 499 574 32,300 655 Climbing Boston Center
Sun 09:32:01 PM 42.3872 -71.3944 49° Northeast 505 581 33,000 655 Climbing Boston Center
Sun 09:33:01 PM 42.4775 -71.2464 50° Northeast 510 587 33,600 541 Climbing Boston Center
Sun 09:34:03 PM 42.5758 -71.0953 49° Northeast 521 600 34,100 443 Climbing Boston Center
Sun 09:35:03 PM 42.6719 -70.9406 50° Northeast 521 600 34,500 646 Climbing Boston Center
Sun 09:36:13 PM 42.7961 -70.7422 49° Northeast 526 605 35,500 916 Climbing Boston Center
Sun 09:37:14 PM 42.8919 -70.5922 49° Northeast 526 605 36,500 627 Climbing Boston Center
Sun 09:38:27 PM 43.0014 -70.4158 50° Northeast 520 598 36,900 -271 Climbing Boston Center
Sun 09:39:27 PM 43.0883 -70.2708 51° Northeast 505 581 35,900 -966 Descending Boston Center
Sun 09:40:25 PM 43.1711 -70.1311 51° Northeast 483 556 35,000 -555 Descending Boston Center
Sun 09:41:26 PM 43.2478 -70.0058 50° Northeast 483 556 34,800 -595 Descending Boston Center
Sun 09:42:26 PM 43.3361 -69.8594 50° Northeast 483 556 33,800 -915 Descending Boston Center
Sun 09:43:24 PM 43.4244 -69.7156 50° Northeast 489 563 33,000 -403 Descending Boston Center
Sun 09:44:25 PM 43.5147 -69.5683 50° Northeast 489 563 33,000  Level Boston Center
Sun 09:45:25 PM 43.5986 -69.4239 51° Northeast 489 563 33,000  Level Boston Center
Sun 09:46:27 PM 43.6825 -69.2847 50° Northeast 489 563 33,000  Level Boston Center
Sun 09:47:27 PM 43.7681 -69.1450 50° Northeast 484 557 33,000  Level Boston Center
Sun 09:48:24 PM 43.8533 -68.9964 51° Northeast 484 557 33,000  Level Boston Center
Sun 09:49:26 PM 43.9406 -68.8500 50° Northeast 489 563 33,000  Level Boston Center
Sun 09:50:27 PM 44.0297 -68.7031 50° Northeast 489 563 33,000  Level Boston Center
Sun 09:51:25 PM 44.1164 -68.5500 52° Northeast 494 568 33,000  Level Boston Center
Sun 09:52:27 PM 44.2028 -68.3967 52° Northeast 494 568 33,000  Level Boston Center
Sun 09:53:25 PM 44.2892 -68.2486 51° Northeast 494 568 33,000  Level Boston Center
Sun 09:54:26 PM 44.3753 -68.0972 51° Northeast 489 563 33,000  Level Boston Center
Sun 09:55:26 PM 44.4611 -67.9453 52° Northeast 489 563 33,000  Level Boston Center
Sun 09:56:08 PM 44.5167 -67.8167 59° Northeast 490 564 33,000  Level Moncton Center
Sun 09:57:08 PM 44.6000 -67.6833 49° Northeast 490 564 33,000  Level Moncton Center
Sun 09:57:25 PM 44.6306 -67.6494 38° Northeast 489 563 33,000  Level Boston Center
Sun 09:58:26 PM 44.7136 -67.4936 53° Northeast 489 563 33,000  Level Boston Center
Sun 09:59:08 PM 44.7667 -67.3667 59° Northeast 490 564 33,000  Level Moncton Center
Sun 10:00:08 PM 44.8500 -67.2000 55° Northeast 490 564 33,000  Level Moncton Center
Sun 10:01:08 PM 44.8833 -67.0167 76° East 500 575 33,000  Level Moncton Center
Sun 10:02:08 PM 44.9000 -66.8333 83° East 510 587 33,000  Level Moncton Center
Sun 10:03:08 PM 44.9000 -66.6167 90° East 510 587 33,000 -50 Level Moncton Center
Sun 10:04:08 PM 44.9000 -66.4333 90° East 500 575 32,900 -400 Descending Moncton Center
Sun 10:05:08 PM 44.9000 -66.2167 90° East 500 575 32,200 -700 Descending Moncton Center
Sun 10:06:08 PM 44.9167 -66.0333 83° East 510 587 31,500 -1,150 Descending Moncton Center
Sun 10:07:08 PM 44.9167 -65.8167 90° East 510 587 29,900 -1,800 Descending Moncton Center
Sun 10:08:08 PM 44.9167 -65.6333 90° East 500 575 27,900 -2,350 Descending Moncton Center
Sun 10:09:08 PM 44.9167 -65.4333 90° East 460 529 25,200 -2,550 Descending Moncton Center
Sun 10:10:08 PM 44.9167 -65.2667 90° East 430 495 22,800 -2,300 Descending Moncton Center
Sun 10:11:08 PM 44.9167 -65.1333 90° East 410 472 20,600 -2,000 Descending Moncton Center
Sun 10:12:08 PM 44.9167 -64.9667 90° East 400 460 18,800 -1,750 Descending Moncton Center
Sun 10:13:08 PM 44.9167 -64.8167 90° East 390 449 17,100 -1,550 Descending Moncton Center
Sun 10:14:08 PM 44.9167 -64.6833 90° East 370 426 15,700 -1,500 Descending Moncton Center
Sun 10:15:08 PM 44.9167 -64.5167 90° East 360 414 14,100 -1,550 Descending Moncton Center
Sun 10:16:08 PM 44.9167 -64.4000 90° East 350 403 12,600 -1,500 Descending Moncton Center
Sun 10:17:08 PM 44.9167 -64.2500 90° East 330 380 11,100 -1,450 Descending Moncton Center
Sun 10:18:08 PM 44.9167 -64.1667 90° East 310 357 9,700 -1,500 Descending Moncton Center
Sun 10:19:08 PM 44.9167 -64.0500 90° East 290 334 8,100 -1,550 Descending Moncton Center
Sun 10:20:08 PM 44.9333 -63.9167 80° East 280 322 6,600 -1,500 Descending Moncton Center
Sun 10:21:08 PM 44.9500 -63.8333 74° East 270 311 5,100 -1,500 Descending Moncton Center
Sun 10:22:08 PM 44.9667 -63.7333 77° East 260 299 3,600 -1,300 Descending Moncton Center
Sun 10:23:08 PM 44.9833 -63.6167 79° East 260 299 2,500 -600 Descending Moncton Center
Sun 10:24:08 PM 45.0000 -63.5500 71° East 230 265 2,400  Descending Moncton Center
Sun 10:25:08 PM 45.0333 -63.4667 60° Northeast 220 253 2,500  Climbing Moncton Center
Sun 10:26:08 PM 45.0333 -63.3833 90° East 210 242 2,400 -50 Descending Moncton Center
Sun 10:27:08 PM 44.9833 -63.3833 180° South 180 207 2,400  Level Moncton Center
Sun 10:28:08 PM 44.9500 -63.4000 199° South 170 196 2,400 -350 Level Moncton Center
Sun 10:29:08 PM 44.9167 -63.4500 227° Southwest 140 161 1,700 -750 Descending Moncton Center
Sun 10:30:08 PM 44.8833 -63.4833 215° Southwest 130 150 900 -800 Descending Moncton Center

Login

Don't have an account? Register now (free) for customized features, flight alerts, and more!